This is the latest recevied weather packets stored in our database for station/object XE2OR-10. If no packets are shown the sender has not sent any weather packets the latest 10 day(s).
| Time | Temp. | Humidity | Pressure | Rain* | Wind** | Luminosity | Snow |
|---|---|---|---|---|---|---|---|
| 1777506833 | 32.22° C | 79% | 1011.3 hPa | 0 mm | - | 98 W/m² | - |
| 1777506529 | 32.78° C | 78% | 1011.4 hPa | 0 mm | - | 154 W/m² | - |
| 1777506233 | 32.22° C | 79% | 1011.2 hPa | 0 mm | - | 140 W/m² | - |
| 1777505930 | 32.78° C | 78% | 1011.2 hPa | 0 mm | - | 140 W/m² | - |
| 1777505629 | 32.78° C | 78% | 1011.4 hPa | 0 mm | - | 123 W/m² | - |
| 1777505328 | 32.78° C | 77% | 1011.5 hPa | 0 mm | - | 220 W/m² | - |
| 1777505032 | 33.33° C | 77% | 1011.7 hPa | 0 mm | - | 209 W/m² | - |
| 1777504729 | 32.78° C | 77% | 1011.5 hPa | 0 mm | - | 295 W/m² | - |
| 1777504432 | 32.78° C | 78% | 1011.5 hPa | 0 mm | - | 178 W/m² | - |
| 1777504129 | 33.33° C | 76% | 1011.5 hPa | 0 mm | - | 263 W/m² | - |
| 1777503832 | 32.78° C | 78% | 1011.6 hPa | 0 mm | - | 239 W/m² | - |
| 1777503828 | 32.78° C | 78% | 1011.6 hPa | 0 mm | - | 239 W/m² | - |
| 1777503529 | 32.78° C | 77% | 1011.6 hPa | 0 mm | - | 228 W/m² | - |
| 1777503233 | 32.78° C | 78% | 1011.5 hPa | 0 mm | - | 191 W/m² | - |
| 1777502929 | 33.33° C | 77% | 1011.7 hPa | 0 mm | - | 233 W/m² | - |
| 1777502633 | 33.33° C | 76% | 1011.7 hPa | 0 mm | - | 287 W/m² | - |
| 1777502329 | 33.89° C | 77% | 1011.5 hPa | 0 mm | - | 334 W/m² | - |
| 1777502029 | 33.89° C | 76% | 1011.7 hPa | 0 mm | - | 459 W/m² | - |
| 1777501730 | 33.33° C | 77% | 1011.7 hPa | 0 mm | - | 537 W/m² | - |
| 1777501432 | 32.78° C | 77% | 1011.7 hPa | 0 mm | - | 491 W/m² | - |
| 1777501129 | 32.78° C | 78% | 1011.7 hPa | 0 mm | - | 170 W/m² | - |
| 1777500832 | 32.78° C | 79% | 1011.9 hPa | 0 mm | - | 223 W/m² | - |
| 1777500529 | 33.33° C | 77% | 1011.9 hPa | 0 mm | - | 282 W/m² | - |
| 1777500229 | 33.33° C | 77% | 1011.8 hPa | 0 mm | - | 293 W/m² | - |
| 1777499929 | 33.33° C | 77% | 1011.9 hPa | 0 mm | - | 415 W/m² | - |
* Rain latest hour (hover to see other rain measurements)
** Current wind speed in m/s (hover to see current wind gust speed)